Location: Newark
(1.4000°N, 32.2500°E)
Time: 11:47:43
(UTC+00:00)

LightSail 2 - Visible Passes

Search period start: 15 October 2019 00:00
Search period end: 25 October 2019 00:00
Orbit: 707 x 723 km, 24.0° (Epoch: 14 October)

Date Brightness Start Highest point End Pass type
(mag) Time Alt. Az. Time Alt. Az. Time Alt. Az.
15 Oct 7.8 01:22:43 11° SSE 01:22:43 11° SSE 01:23:00 10° SSE visible
21 Oct 7.1 16:48:10 10° NNW 16:50:45 14° NNE 16:50:49 14° NNE visible
22 Oct 7.2 17:34:28 10° NW 17:36:03 18° NNW 17:36:03 18° NNW visible
23 Oct 6.5 16:37:19 10° NNW 16:41:17 22° NNE 16:42:21 21° NE visible
24 Oct 6.1 17:24:17 10° NW 17:27:46 39° NNW 17:27:46 39° NNW visible
